Lid_Strength_Index
-0 -0 -1 -1 -1 -1 -1 -1 -1 -1 -1 -1 -1 -1 -1 -1 -1 2 4 3 6 12 9 8 8 9 9 10 13 11 11 10 9 12 14 15 21 15 16 15 15 14 15 15 14 16 18 14 13 13 13 16 16 16
-0 -1 -1 -1 -1 -1 -1 -1 -1 -1 -1 -1 -0 -1 -1 -1 -1 1 5 3 4 7 9 6 7 6 6 6 9 8 10 10 8 14 13 15 14 14 20 16 11 16 11 13 13 13 15 18 20 18 17 16 18 18
-0 -1 -1 -1 -1 -1 -1 -1 -1 -1 -1 -1 -1 -1 -1 -1 -1 1 3 4 5 7 7 7 8 7 5 6 6 8 7 7 7 8 11 10 18 11 14 14 15 12 14 13 13 16 16 18 19 20 19 18 19 19
-0 -1 -1 -1 -1 -1 -1 -1 -1 -1 -1 -1 -1 -1 -1 -1 -1 1 5 5 5 8 12 12 4 7 5 5 6 6 6 5 5 6 9 11 16 10 12 12 12 13 12 16 16 18 19 19 19 20 21 21 22 21
1 0 -0 -1 -1 -1 -1 -1 -1 -1 -1 -1 -1 -1 -1 -1 -0 3 3 4 5 7 11 11 7 6 6 6 6 6 6 6 8 9 10 12 12 11 12 13 16 16 13 14 13 17 17 19 20 20 21 22 22 23
1 1 1 -0 -0 -1 -1 -1 -1 -1 -1 -1 -1 -1 -1 -1 1 3 7 4 4 5 9 11 8 9 7 7 6 6 6 7 8 10 11 13 13 11 14 17 16 20 22 22 19 22 21 21 22 21 23 23 23 23
2 1 1 1 -0 -1 -1 -1 -1 -1 -1 -1 -1 -0 -0 0 4 7 8 7 5 5 9 12 12 10 9 8 8 9 9 12 10 11 12 13 13 12 13 15 18 21 23 23 23 22 24 24 24 24 24 25 25 26
2 2 1 0 -0 -0 -1 -1 -1 -1 -1 -1 -1 -0 1 2 4 7 7 6 5 8 9 13 13 13 10 11 11 10 12 12 15 14 15 15 15 16 17 17 23 24 26 26 26 26 25 25 26 27 27 27 28 28
3 2 1 -0 -0 -0 -0 -1 -1 -0 -0 -0 0 2 4 8 8 9 6 7 10 10 11 16 17 17 13 12 12 15 13 15 16 16 17 18 16 17 15 21 24 26 26 27 28 27 26 26 28 28 29 29 29 30
4 3 2 1 0 -0 -0 -1 -1 -0 0 1 5 7 10 11 6 6 9 9 12 16 19 19 25 20 15 15 17 16 15 16 18 19 19 20 20 24 25 28 24 26 28 28 30 31 30 30 29 31 31 30 28 30
5 4 2 2 2 1 1 -0 0 1 3 8 9 12 10 9 9 12 13 14 19 19 22 25 26 22 15 16 16 14 16 19 20 20 19 21 24 23 29 31 29 28 28 33 34 32 29 27 29 30 32 32 32 34
6 5 3 2 2 2 2 3 3 7 8 8 10 11 13 15 15 14 19 20 19 19 27 26 24 20 21 16 19 18 19 20 20 24 23 25 22 30 30 29 30 30 30 32 34 32 31 31 31 31 33 34 35 36
6 7 5 5 5 4 3 4 4 5 9 11 14 16 15 18 19 19 21 23 25 29 25 24 21 21 18 17 19 20 22 22 26 25 22 21 29 33 36 36 36 38 38 36 37 36 33 35 35 36 37 41 38 38
7 7 7 7 7 7 7 6 6 9 13 17 19 19 21 21 23 24 25 25 26 25 25 24 22 20 19 20 19 19 24 25 26 27 22 24 30 31 34 37 34 35 38 36 38 39 36 35 37 41 38 38 36 36
8 8 8 9 9 9 10 11 13 19 20 22 21 20 27 30 29 28 28 28 28 28 26 25 24 21 19 20 23 25 26 26 24 22 24 28 34 32 35 38 38 36 38 38 41 38 37 38 37 39 43 40 39 38
9 11 12 9 10 10 13 17 20 24 29 28 31 29 34 29 33 34 32 29 30 28 28 26 23 23 22 23 25 24 25 25 22 26 29 37 34 33 34 35 35 35 37 38 39 39 37 36 35 35 41 42 40 37
11 20 11 10 11 12 13 22 23 29 29 30 31 41 36 35 31 32 31 31 30 31 27 28 23 21 28 29 29 28 25 22 25 31 39 38 34 33 35 35 36 36 37 37 38 40 39 41 41 39 36 36 38 38
22 18 11 10 19 20 28 29 28 29 31 35 30 34 38 38 37 39 40 34 33 33 34 31 31 31 28 27 26 25 28 34 38 38 37 39 41 37 34 33 35 35 35 36 39 39 40 39 36 33 36 39 39 42
18 17 11 11 20 26 26 28 29 27 33 40 39 38 40 40 41 40 41 38 39 39 35 36 34 29 25 27 26 30 36 34 31 34 37 40 38 35 34 37 35 36 35 37 38 35 34 35 33 33 34 37 33 35
12 13 13 13 18 26 29 31 33 29 30 32 38 38 38 38 43 47 47 43 39 41 37 34 28 26 25 25 27 28 30 31 32 34 34 35 37 39 34 33 32 34 37 42 42 39 40 39 38 38 38 36 36 33
14 18 16 24 29 31 32 36 34 36 39 35 43 36 38 42 42 42 42 44 39 36 32 29 29 29 41 42 42 39 33 30 29 25 25 30 35 34 36 37 36 36 36 36 34 36 34 32 31 33 35 35 35 34
22 15 25 23 28 33 33 38 34 38 35 42 39 42 40 38 39 43 43 42 36 29 29 28 31 32 39 35 34 38 36 34 41 36 34 32 34 36 37 35 35 34 33 32 31 30 31 31 34 36 36 34 35 37
19 22 25 27 26 30 34 39 35 40 31 35 41 35 35 41 44 42 39 34 31 31 37 38 42 47 38 46 46 44 42 33 34 35 36 36 38 35 32 33 31 31 32 32 31 31 30 33 33 33 35 37 38 38
21 25 24 25 28 31 39 38 40 40 40 37 35 33 37 42 45 42 33 33 30 48 44 42 43 39 40 40 38 34 33 36 38 40 40 35 34 34 33 31 31 30 30 33 31 31 32 33 33 34 35 36 38 35
21 23 25 26 34 32 33 36 40 37 34 42 36 35 38 47 36 39 33 27 35 37 39 42 38 36 27 29 36 37 39 32 31 29 32 32 38 40 40 41 36 32 34 34 36 35 36 36 33 33 34 34 33 34
24 25 25 23 29 28 30 29 32 32 36 39 39 45 48 39 34 28 28 27 31 31 36 33 29 31 33 31 30 32 30 33 32 30 32 31 29 27 27 30 32 30 32 29 28 31 30 33 34 34 33 33 32 32
24 23 31 37 31 31 33 37 37 32 32 30 34 39 34 30 28 25 28 30 29 30 29 26 24 23 20 22 27 38 34 30 29 30 34 29 27 25 24 26 26 26 30 30 28 28 28 30 30 31 30 31 31 31
24 28 24 30 32 31 26 29 30 30 26 31 30 31 27 25 22 23 23 31 37 41 37 38 36 32 32 32 31 34 39 37 40 38 37 37 37 32 30 32 35 26 30 29 29 28 27 28 28 29 29 29 28 30
32 32 29 32 32 32 29 26 26 26 28 27 24 26 26 25 27 29 31 35 42 35 33 33 35 41 39 40 39 36 34 31 30 31 29 25 31 26 31 29 28 31 32 31 27 28 29 28 28 28 28 28 29 32
33 35 31 31 29 28 28 32 31 38 39 39 40 35 32 30 31 36 36 36 32 29 28 30 32 30 29 29 31 38 38 31 25 23 24 22 22 29 30 29 29 29 30 30 31 31 23 25 25 31 32 33 34 35
40 36 32 30 29 35 39 41 41 40 38 36 40 36 32 34 32 31 32 30 29 30 30 30 32 31 30 29 28 28 27 31 33 31 34 35 35 33 30 29 29 29 30 29 29 28 27 27 29 30 31 31 32 31
40 36 33 31 31 39 40 37 34 32 32 32 30 36 31 30 26 22 30 31 31 29 27 25 25 24 27 26 25 26 27 26 28 29 29 28 29 30 29 30 30 30 30 30 29 28 28 27 27 27 28 29 29 29
39 36 34 33 33 33 35 33 32 30 31 29 28 30 30 29 24 21 29 29 26 25 26 26 25 25 26 26 26 25 26 28 27 24 25 25 25 26 28 29 29 29 29 29 29 29 29 28 27 27 27 27 27 27